Temperature
11 11 10 10 10 9 9 9 9 9 8 8 8 8 7 7 6 5 5 4 4 3 3 2 2 1 1 0 -0 -1 -1 -2 -3 -2 -2 -3 -3 -3 -3 -3 -3 -3 -4
11 10 10 10 9 9 9 9 9 8 8 8 7 7 7 6 6 5 4 4 3 3 2 2 1 1 0 -0 -1 -1 -2 -2 -3 -3 -3 -3 -3 -4 -4 -4 -4 -4 -4
10 10 9 9 9 9 9 8 8 8 8 7 7 7 6 5 5 4 4 3 3 2 2 1 1 0 -0 -1 -1 -2 -2 -3 -3 -4 -4 -4 -4 -4 -4 -5 -5 -5 -5
10 9 9 9 9 8 8 8 7 7 7 7 6 6 5 5 4 4 3 3 2 2 1 1 0 -0 -1 -1 -2 -2 -3 -3 -3 -4 -4 -4 -5 -5 -5 -5 -5 -5 -5
9 9 9 9 8 8 7 7 7 6 6 6 6 5 5 4 4 3 3 2 1 1 1 0 -0 -1 -1 -2 -3 -3 -3 -4 -4 -4 -5 -5 -5 -5 -5 -5 -6 -6 -5
9 9 8 8 8 7 7 6 6 6 6 5 5 5 4 4 3 3 2 1 1 0 -0 -1 -1 -2 -2 -3 -3 -3 -4 -4 -4 -5 -5 -5 -5 -5 -6 -6 -6 -6 -6
9 8 8 8 7 7 6 6 6 5 5 5 4 4 3 3 3 2 1 1 0 -0 -1 -1 -2 -2 -3 -3 -4 -4 -4 -4 -5 -5 -5 -5 -6 -6 -6 -6 -6 -6 -6
9 8 8 7 7 6 6 5 5 5 4 4 4 3 3 3 2 1 1 -0 -1 -1 -1 -2 -2 -3 -3 -4 -4 -4 -5 -5 -5 -5 -6 -6 -6 -6 -6 -6 -6 -6 -6
8 8 7 6 6 5 5 5 4 4 3 3 3 3 2 2 1 0 -0 -1 -1 -2 -2 -3 -3 -4 -4 -4 -5 -5 -5 -5 -6 -6 -6 -6 -6 -6 -6 -6 -6 -6 -7
8 7 6 6 5 5 4 4 3 3 3 2 2 2 1 1 0 -0 -1 -2 -2 -2 -3 -3 -4 -4 -5 -5 -5 -6 -6 -6 -6 -6 -6 -6 -6 -6 -6 -6 -7 -7 -7
7 6 6 5 5 4 4 3 3 2 2 1 1 1 0 -0 -1 -1 -2 -2 -3 -3 -4 -4 -4 -5 -5 -6 -6 -6 -6 -6 -6 -6 -6 -6 -6 -6 -6 -7 -7 -7 -7
6 5 5 4 4 3 3 2 2 1 1 1 0 -0 -1 -1 -2 -2 -3 -3 -4 -4 -4 -5 -5 -6 -6 -6 -6 -6 -6 -6 -7 -7 -7 -7 -7 -7 -7 -7 -7 -7 -8
5 5 4 4 3 3 2 1 1 0 0 -0 -1 -1 -1 -2 -2 -3 -4 -4 -5 -5 -5 -5 -6 -6 -6 -7 -7 -7 -7 -7 -7 -7 -7 -7 -7 -8 -8 -8 -8 -8 -8
4 4 3 3 2 2 1 1 0 -0 -1 -1 -2 -2 -2 -3 -3 -4 -4 -5 -5 -6 -6 -6 -6 -7 -7 -7 -7 -7 -7 -7 -8 -8 -8 -8 -8 -8 -8 -8 -9 -9 -8
4 3 2 2 1 1 0 -0 -1 -1 -2 -2 -3 -3 -3 -4 -4 -5 -5 -5 -6 -6 -6 -7 -7 -7 -7 -8 -8 -8 -8 -8 -8 -8 -8 -8 -9 -9 -9 -9 -9 -9 -9
3 2 2 1 1 0 -1 -1 -2 -2 -3 -3 -3 -4 -4 -5 -5 -5 -6 -6 -6 -7 -7 -7 -8 -8 -8 -8 -9 -8 -8 -8 -9 -9 -9 -9 -9 -9 -9 -9 -10 -10 -9
2 1 1 0 -0 -1 -2 -2 -3 -3 -3 -4 -4 -5 -5 -5 -6 -6 -6 -7 -7 -7 -8 -8 -8 -9 -9 -9 -9 -9 -9 -9 -9 -9 -9 -10 -10 -10 -10 -10 -10 -10 -10
1 0 -0 -1 -2 -2 -3 -3 -4 -4 -5 -5 -5 -6 -6 -6 -7 -7 -7 -7 -8 -8 -8 -9 -9 -9 -9 -10 -10 -10 -10 -10 -10 -10 -10 -10 -10 -10 -10 -10 -10 -10 -10
-0 -1 -1 -2 -3 -3 -4 -4 -5 -5 -6 -6 -6 -6 -7 -7 -8 -8 -8 -8 -9 -9 -9 -9 -10 -10 -10 -10 -10 -10 -10 -10 -10 -10 -10 -10 -11 -11 -11 -11 -11 -10 -10
-1 -2 -2 -3 -4 -4 -5 -5 -6 -6 -6 -7 -7 -7 -8 -8 -8 -8 -9 -9 -9 -10 -10 -10 -10 -10 -10 -10 -10 -11 -11 -11 -11 -11 -11 -11 -11 -11 -11 -11 -11 -11 -11
-2 -3 -3 -4 -5 -5 -6 -6 -7 -7 -7 -8 -8 -8 -9 -9 -9 -9 -9 -10 -10 -10 -10 -11 -11 -11 -11 -11 -11 -11 -11 -11 -11 -11 -11 -11 -11 -11 -11 -11 -11 -11 -11
-3 -4 -4 -5 -6 -6 -6 -7 -7 -8 -8 -8 -8 -9 -9 -9 -10 -10 -10 -10 -10 -11 -11 -11 -11 -11 -11 -11 -11 -12 -12 -12 -12 -12 -12 -12 -12 -12 -12 -12 -11 -11 -11
-4 -5 -6 -6 -6 -7 -7 -8 -8 -8 -9 -9 -9 -9 -10 -10 -10 -10 -11 -11 -11 -11 -11 -11 -12 -12 -12 -12 -12 -12 -12 -12 -12 -12 -12 -12 -12 -12 -12 -12 -12 -12 -11
-6 -6 -7 -7 -7 -8 -8 -8 -9 -9 -9 -9 -10 -10 -10 -10 -11 -11 -11 -11 -11 -12 -12 -12 -12 -12 -12 -12 -12 -12 -12 -12 -12 -12 -12 -12 -12 -12 -12 -12 -12 -12 -12
-6 -7 -7 -8 -8 -8 -9 -9 -9 -9 -10 -10 -10 -11 -11 -11 -11 -11 -11 -12 -12 -12 -12 -12 -12 -12 -12 -12 -12 -12 -12 -12 -12 -12 -12 -12 -12 -12 -12 -12 -12 -12 -12
-7 -7 -8 -8 -9 -9 -9 -10 -10 -10 -10 -11 -11 -11 -11 -11 -12 -12 -12 -12 -12 -12 -12 -12 -12 -12 -12 -12 -12 -12 -12 -12 -12 -12 -12 -12 -12 -12 -12 -12 -12 -12 -12
Wind_Speed
10 9 9 8 8 8 7 8 7 7 7 8 7 7 7 6 6 6 6 7 7 7 7 8 9 8 7 7 7 7 7 8 15 13 7 7 8 9 12 15 18 17 19
9 8 8 8 8 8 7 7 7 7 7 7 7 7 7 7 7 7 7 7 8 8 8 8 9 8 8 8 7 8 8 9 12 17 10 7 9 9 10 10 13 16 16
8 8 7 7 8 8 7 7 7 7 7 6 7 7 7 7 7 7 7 8 8 8 8 9 9 9 10 8 9 9 9 10 9 12 13 8 7 8 10 11 12 10 16
7 7 7 7 7 7 6 6 6 6 6 7 7 7 7 7 7 7 7 8 8 8 8 9 9 10 11 11 10 10 10 10 9 11 12 10 9 8 8 9 11 8 10
6 6 6 6 5 5 5 6 5 6 6 6 6 6 6 6 7 7 7 8 9 9 9 10 11 14 18 16 13 10 10 9 9 11 12 11 10 7 8 8 12 10 10
5 5 5 5 5 5 5 5 5 5 5 6 7 7 7 7 11 13 11 9 9 9 10 10 11 14 18 23 25 24 19 14 11 11 12 13 12 10 9 10 11 12 11
5 4 5 5 5 5 5 5 5 6 6 6 7 7 8 9 13 15 15 10 9 9 10 10 12 12 17 12 18 23 22 25 24 16 14 14 13 11 11 12 11 12 13
4 4 4 5 5 5 5 5 5 5 5 6 7 7 7 9 13 15 16 11 9 10 10 11 11 11 12 14 12 12 12 13 16 14 12 13 13 12 12 13 14 13 11
4 4 4 4 4 5 5 5 5 4 5 6 6 6 7 8 13 15 15 8 9 11 10 10 11 11 20 24 16 13 12 11 18 23 25 23 26 25 20 11 9 10 12
4 3 3 3 4 4 5 5 4 4 5 5 6 6 7 8 13 16 16 7 9 9 9 9 16 18 22 24 15 12 14 13 12 14 16 18 16 17 21 12 8 10 10
3 2 2 2 3 4 4 4 4 4 5 5 7 7 7 9 12 15 16 8 8 9 8 7 8 21 24 25 22 14 19 19 12 11 10 10 9 8 8 8 7 8 10
3 2 2 2 2 2 3 4 4 4 5 6 6 7 6 7 10 13 18 18 16 10 9 7 10 22 25 26 21 21 27 23 10 9 9 8 7 7 6 7 8 8 8
2 2 2 2 2 3 3 4 4 4 5 5 6 7 7 5 8 16 19 20 21 14 11 18 22 26 25 18 22 26 22 11 8 9 9 7 6 6 6 6 6 7 8
2 2 2 2 3 3 3 3 4 4 5 6 6 7 7 6 6 6 7 10 15 14 12 17 23 24 19 19 19 15 9 8 8 8 7 6 5 5 5 5 5 5 6
2 2 2 2 3 3 4 4 5 5 6 7 6 7 8 9 11 17 14 9 8 10 12 9 8 8 8 8 8 9 7 7 7 5 5 6 5 6 6 5 5 5 5
2 2 2 2 3 3 4 5 7 9 14 15 15 15 12 17 22 23 23 23 24 24 17 9 9 9 10 9 9 8 6 6 5 5 5 5 6 6 6 5 5 5 6
2 2 2 3 3 4 4 5 7 9 13 15 17 19 19 21 23 23 23 23 23 22 12 8 9 9 9 9 8 8 7 6 5 5 5 5 6 6 6 6 6 6 6
2 4 4 4 4 4 5 6 6 8 9 8 11 18 20 21 22 22 22 19 12 11 7 8 9 9 8 8 8 7 7 6 5 5 5 5 5 6 6 7 6 6 6
3 3 3 4 4 5 5 6 7 8 9 9 8 10 16 18 20 20 19 9 9 9 8 8 8 8 8 8 7 7 7 6 6 5 5 5 5 6 7 7 7 10 8
3 7 7 5 5 5 6 7 7 8 9 9 9 8 8 10 8 10 8 7 8 9 8 8 8 8 8 7 7 7 6 7 6 6 6 6 5 6 7 8 7 6 6
3 5 9 7 5 6 7 7 8 8 9 10 9 12 18 11 9 9 8 8 8 8 8 8 8 8 8 7 6 7 8 7 7 6 6 6 6 6 6 6 6 6 6
3 4 4 6 6 6 8 7 8 8 9 11 10 12 19 12 9 9 9 9 8 7 7 8 8 8 7 7 7 8 8 8 7 6 6 6 6 6 6 6 6 6 6
4 5 6 7 7 11 11 8 8 9 10 10 10 10 10 9 9 10 10 9 8 8 7 7 8 8 8 7 7 8 8 8 7 7 7 6 6 6 6 7 7 7 6
5 6 7 7 7 7 8 9 9 9 10 10 10 10 10 10 10 11 10 10 9 9 8 8 9 10 12 10 9 8 8 10 9 8 9 8 8 7 7 7 7 8 7
5 7 7 7 8 8 9 9 9 10 10 11 11 11 11 11 11 11 11 10 11 10 11 10 9 10 12 13 12 11 16 20 18 12 8 8 9 9 9 9 8 8 8
6 7 7 7 7 8 9 9 10 11 11 11 11 11 11 12 12 12 11 10 10 11 11 10 11 13 14 13 15 18 22 22 21 20 12 8 9 9 9 9 10 9 9
Wind_Direction
197 195 193 193 188 182 184 187 185 182 177 181 188 194 201 208 212 217 226 232 238 245 247 249 253 254 256 254 252 252 253 257 275 283 271 275 278 283 291 290 290 289 289
193 193 193 190 184 186 190 189 184 183 183 186 189 198 207 213 216 221 232 237 240 247 251 253 258 262 260 257 256 256 256 255 268 282 284 279 275 279 280 279 289 290 288
185 188 189 187 187 191 192 189 185 184 187 191 194 204 213 218 223 227 233 239 242 246 250 254 259 262 265 263 261 262 262 266 263 275 283 281 278 281 284 285 282 283 286
181 185 191 192 190 191 189 186 185 185 192 200 206 211 217 223 229 234 238 243 248 251 253 256 260 260 263 265 266 263 264 265 265 271 279 282 280 276 278 284 287 277 280
180 187 192 186 182 182 185 186 187 192 201 205 212 219 222 227 234 237 240 247 251 257 259 259 262 266 268 271 273 267 262 265 267 271 277 281 280 280 276 278 285 287 280
178 186 181 179 182 186 189 189 193 200 206 211 218 222 227 238 249 253 256 251 251 255 262 264 268 272 275 278 279 280 276 272 271 272 277 278 279 275 277 279 283 288 288
176 180 179 180 186 189 188 191 202 209 214 222 225 227 234 241 252 260 263 265 257 257 261 267 275 277 282 276 279 281 281 279 277 276 276 276 278 276 276 277 274 276 281
179 186 185 185 191 191 195 206 215 217 221 228 233 235 242 250 259 266 270 268 261 259 259 262 268 272 275 281 277 274 268 271 274 276 271 271 272 272 267 271 275 277 275
188 192 187 185 193 198 207 217 222 227 235 237 239 243 248 257 263 269 273 266 262 262 261 264 270 272 281 287 287 282 280 276 280 279 277 278 279 283 284 284 281 284 287
188 181 176 185 199 209 217 225 230 232 240 244 248 247 249 255 266 272 274 267 267 269 267 264 274 280 286 289 287 283 283 281 278 278 277 280 281 281 284 279 274 279 286
144 147 177 202 212 220 227 232 237 243 248 252 256 257 256 262 271 274 279 277 270 274 275 273 271 286 289 290 289 284 283 286 280 275 273 269 267 264 264 261 253 257 272
130 160 200 219 224 228 233 244 243 243 252 259 263 267 263 267 276 281 284 286 288 285 283 280 280 290 292 292 292 288 290 292 286 280 276 270 267 266 265 262 257 253 256
141 191 222 232 237 238 238 246 253 251 254 262 264 271 274 270 276 285 289 290 291 290 285 289 292 295 296 295 292 292 292 289 280 278 275 270 263 263 270 274 270 266 267
181 217 227 239 252 252 249 243 249 252 259 265 269 275 279 279 275 276 275 283 289 290 289 289 293 293 293 291 291 290 281 271 273 271 271 268 268 272 274 271 273 276 280
203 225 241 249 257 264 262 253 258 250 256 269 268 268 278 283 282 289 292 287 283 281 293 288 286 288 284 282 280 278 272 270 276 267 271 277 279 281 279 271 265 272 275
211 237 247 259 266 269 278 289 283 279 285 285 285 286 287 288 294 297 297 298 300 300 301 293 292 290 289 288 288 285 278 271 265 265 268 271 279 281 283 281 272 268 273
224 248 259 263 267 271 275 281 291 296 290 289 290 291 292 294 297 299 300 301 302 303 297 288 286 286 286 286 283 281 279 272 264 262 264 270 276 277 278 280 278 272 272
253 268 271 263 266 270 272 276 280 287 294 289 287 290 294 297 299 302 304 306 301 297 279 280 281 281 280 282 282 278 277 273 264 259 260 264 268 272 275 276 275 270 273
262 264 267 268 271 274 277 280 281 282 286 290 291 292 296 300 302 301 303 296 289 286 282 280 279 280 280 279 279 277 274 271 266 259 257 257 260 265 270 272 273 276 278
268 281 288 282 279 281 281 281 283 284 287 290 291 293 298 297 292 292 287 278 280 282 283 283 281 279 279 276 275 274 275 272 265 258 256 256 255 259 266 269 269 269 268
271 285 294 292 281 279 279 280 282 284 286 288 288 292 298 297 292 290 288 283 280 281 281 282 282 280 277 275 274 271 269 269 264 257 255 256 255 259 262 264 264 264 265
277 281 281 280 281 281 285 282 282 283 285 287 290 294 298 296 290 288 287 286 282 278 277 278 280 276 270 268 270 274 273 271 266 258 254 255 257 257 260 261 261 262 260
280 284 287 285 285 289 293 287 285 285 286 287 290 292 294 290 288 288 288 286 283 282 279 276 279 280 275 269 265 263 264 265 263 257 254 255 256 255 256 256 255 260 257
283 284 285 287 287 286 286 287 286 287 288 289 291 291 291 289 289 289 288 287 284 282 278 276 275 276 277 277 273 268 263 262 258 251 245 248 251 252 252 252 252 252 252
286 285 285 285 286 287 289 289 290 290 291 293 292 292 291 291 290 290 289 287 285 284 281 279 278 277 276 274 274 273 274 274 272 263 245 241 243 245 246 246 247 248 247
286 286 286 286 286 287 289 290 291 291 292 292 291 291 291 290 290 290 289 288 287 286 284 281 275 273 274 275 275 275 278 278 274 269 259 244 239 241 239 241 241 240 242
Height
1481 1483 1485 1486 1489 1490 1492 1493 1494 1495 1496 1497 1497 1498 1497 1497 1496 1495 1494 1493 1491 1489 1487 1485 1483 1481 1478 1476 1473 1471 1468 1464 1455 1446 1447 1446 1444 1442 1439 1437 1433 1430 1427
1476 1478 1479 1481 1483 1484 1486 1487 1489 1489 1490 1491 1491 1491 1491 1491 1490 1489 1487 1486 1484 1482 1480 1478 1476 1473 1470 1468 1465 1462 1459 1456 1451 1442 1438 1438 1436 1434 1431 1428 1425 1423 1420
1471 1473 1474 1476 1477 1479 1480 1482 1483 1483 1484 1485 1485 1485 1485 1484 1483 1482 1481 1479 1477 1475 1473 1471 1468 1466 1462 1460 1457 1453 1450 1448 1444 1438 1431 1430 1427 1426 1423 1420 1417 1415 1412
1466 1468 1469 1471 1472 1474 1475 1476 1477 1477 1478 1478 1479 1479 1478 1478 1477 1476 1474 1472 1470 1468 1465 1463 1460 1458 1454 1451 1448 1445 1442 1439 1435 1431 1425 1422 1419 1418 1416 1412 1408 1406 1403
1462 1463 1464 1466 1468 1469 1470 1470 1471 1472 1472 1472 1472 1472 1472 1471 1470 1469 1467 1464 1462 1459 1457 1455 1452 1449 1446 1444 1440 1437 1434 1430 1427 1423 1418 1414 1411 1410 1408 1405 1401 1397 1394
1458 1459 1460 1462 1463 1464 1464 1465 1465 1466 1466 1466 1466 1465 1465 1464 1463 1462 1460 1456 1454 1451 1448 1445 1443 1440 1437 1435 1432 1429 1427 1423 1419 1416 1411 1407 1404 1403 1400 1398 1394 1390 1385
1454 1455 1456 1456 1457 1458 1459 1459 1459 1459 1459 1459 1459 1458 1457 1457 1456 1454 1452 1449 1446 1442 1439 1436 1434 1431 1429 1425 1422 1419 1417 1415 1413 1409 1404 1400 1397 1395 1393 1390 1387 1383 1379
1450 1450 1451 1452 1452 1453 1454 1454 1454 1453 1453 1452 1452 1451 1450 1449 1448 1446 1444 1441 1437 1434 1431 1428 1425 1422 1420 1417 1413 1409 1406 1404 1403 1400 1396 1392 1390 1388 1386 1383 1379 1375 1371
1446 1446 1447 1447 1448 1448 1448 1448 1448 1447 1447 1446 1446 1445 1443 1441 1440 1438 1436 1432 1428 1425 1423 1420 1417 1414 1411 1409 1405 1400 1396 1394 1392 1390 1387 1385 1382 1380 1379 1375 1371 1368 1363
1442 1443 1443 1443 1443 1443 1443 1443 1442 1442 1441 1440 1439 1438 1436 1434 1432 1431 1429 1425 1420 1416 1414 1411 1409 1406 1403 1400 1397 1392 1388 1384 1382 1380 1378 1375 1373 1372 1370 1369 1365 1362 1358
1439 1439 1439 1439 1439 1438 1438 1437 1437 1436 1434 1433 1432 1430 1429 1427 1425 1423 1421 1418 1413 1408 1405 1402 1399 1397 1394 1391 1389 1385 1380 1377 1374 1371 1368 1366 1364 1363 1361 1360 1358 1356 1352
1435 1435 1435 1435 1434 1433 1433 1432 1431 1430 1428 1426 1424 1422 1421 1419 1417 1415 1412 1410 1406 1402 1397 1393 1390 1388 1385 1382 1379 1375 1373 1370 1366 1363 1360 1357 1356 1355 1353 1352 1350 1348 1346
1431 1431 1431 1430 1429 1429 1428 1426 1425 1424 1422 1420 1417 1414 1412 1411 1409 1407 1404 1401 1398 1394 1389 1385 1382 1379 1376 1372 1369 1367 1364 1361 1358 1355 1352 1350 1349 1348 1346 1344 1342 1340 1339
1427 1427 1426 1425 1424 1423 1422 1421 1420 1418 1416 1413 1411 1408 1404 1402 1400 1397 1394 1391 1388 1385 1380 1376 1373 1370 1367 1363 1360 1358 1355 1353 1351 1348 1345 1344 1342 1341 1339 1338 1336 1334 1332
1423 1422 1422 1421 1419 1418 1416 1415 1414 1412 1411 1408 1405 1402 1398 1393 1392 1390 1387 1383 1380 1376 1372 1368 1364 1361 1357 1354 1352 1349 1347 1345 1343 1341 1340 1338 1336 1335 1333 1332 1331 1329 1327
1418 1418 1417 1415 1414 1412 1410 1408 1406 1406 1403 1401 1398 1396 1391 1388 1385 1382 1379 1376 1372 1369 1365 1360 1356 1353 1350 1347 1345 1342 1340 1339 1337 1336 1334 1333 1331 1329 1328 1327 1325 1324 1322
1414 1413 1411 1410 1408 1406 1404 1401 1398 1396 1395 1393 1391 1388 1384 1381 1378 1374 1371 1367 1364 1361 1357 1352 1349 1346 1344 1341 1339 1336 1334 1333 1331 1330 1328 1327 1326 1324 1323 1321 1320 1319 1317
1409 1408 1406 1404 1402 1400 1398 1395 1392 1388 1385 1382 1381 1379 1376 1373 1370 1367 1363 1359 1355 1352 1349 1346 1343 1340 1337 1335 1332 1330 1328 1326 1325 1324 1323 1321 1320 1319 1318 1316 1315 1314 1313
1404 1402 1400 1398 1396 1394 1392 1389 1386 1383 1379 1375 1372 1370 1368 1365 1361 1359 1356 1352 1347 1344 1341 1339 1336 1333 1330 1328 1326 1324 1322 1320 1319 1318 1317 1316 1315 1314 1312 1311 1310 1310 1309
1398 1397 1395 1392 1390 1388 1385 1382 1379 1376 1373 1369 1365 1362 1359 1356 1352 1349 1347 1344 1340 1337 1334 1331 1328 1326 1323 1321 1319 1317 1316 1314 1313 1312 1310 1310 1309 1308 1307 1306 1305 1305 1304
1392 1390 1389 1386 1384 1381 1379 1376 1373 1370 1366 1362 1358 1356 1353 1350 1345 1342 1339 1336 1333 1330 1327 1324 1321 1318 1316 1314 1312 1310 1309 1307 1306 1305 1304 1303 1303 1302 1301 1301 1300 1300 1299
1386 1384 1382 1380 1377 1375 1372 1369 1366 1363 1359 1355 1351 1348 1346 1342 1338 1335 1331 1328 1325 1322 1319 1317 1313 1311 1309 1307 1305 1303 1302 1300 1299 1298 1297 1297 1297 1296 1296 1295 1295 1295 1294
1381 1378 1376 1374 1371 1368 1366 1362 1359 1355 1352 1348 1344 1340 1337 1334 1330 1327 1323 1320 1317 1314 1311 1309 1306 1303 1301 1299 1298 1296 1295 1293 1292 1292 1291 1290 1290 1290 1290 1289 1289 1289 1289
1375 1372 1370 1367 1364 1361 1358 1355 1351 1348 1344 1341 1337 1333 1329 1326 1322 1318 1315 1312 1308 1305 1303 1300 1297 1295 1293 1291 1289 1288 1287 1285 1285 1284 1284 1283 1283 1283 1283 1283 1283 1283 1284
1369 1366 1363 1361 1357 1354 1351 1347 1344 1340 1337 1333 1329 1325 1321 1318 1314 1310 1307 1303 1300 1297 1294 1292 1289 1286 1284 1282 1281 1279 1278 1277 1277 1276 1276 1276 1276 1276 1276 1276 1277 1277 1278
1363 1360 1357 1354 1351 1347 1344 1340 1336 1333 1329 1325 1321 1318 1314 1310 1306 1302 1298 1295 1292 1288 1285 1283 1280 1278 1276 1274 1272 1270 1269 1268 1268 1268 1268 1268 1268 1268 1269 1269 1270 1271 1272